Tracking 26325 objects as of 29-Nov-2022
HD Live streaming from Space Station
objects crossing your sky now

COSMOS 1375 DEB

Track COSMOS 1375 DEB now!
10-day predictions


NORAD ID: 18477
Int'l Code: 1982-055BF
Perigee: 808.3 km
Apogee: 844.9 km
Inclination: 65.8 °
Period: 101.3 minutes
Semi major axis: 7197 km
RCS: 0.0083 m2 (small)
Launch date: June 6, 1982
Source: Commonwealth of Independent States (former USSR) (CIS)
Launch site: PLESETSK MISSILE AND SPACE COMPLEX (PKMTR)

Note: This is SATELLITE DEBRIS
aabbcc
Your satellite tracking list
Your tracking list is empty




NASA's NSSDC Master Catalog

Two Line Element Set (TLE):
1 18477U 82055BF  22333.10870630  .00002607  00000-0  12209-2 0  9996
2 18477  65.8251 145.9720 0025385 312.0069  47.8856 14.21741462892412
Source of the keplerian elements: AFSPC